{"data":{"norad_id":63401,"epoch":"2026-09-20T21:10:43.286016Z","epoch_age_seconds":125806,"freshness":"FRESH","line1":"1 63401U 25065C   26263.88244544  .00009587  00000+0  35736-3 0  9995","line2":"2 63401  43.0036  84.6106 0001532 275.9290  84.1387 15.27587241 82690","mean_motion":15.27587241,"eccentricity":0.0001532,"inclination_deg":43.0036,"raan_deg":84.6106,"arg_perigee_deg":275.929,"mean_anomaly_deg":84.1387,"bstar":0.00035736,"rev_number":8269,"period_min":94.26630187467,"perigee_km":481.97628357814,"apogee_km":484.07854435458,"semimajor_km":6861.1644139664,"source":"CELESTRAK","updated_at":"2026-09-21T09:00:34.978105Z"}}